Regional Weather Roundup
Issued by NWS

Home | Current Version | Previous Version | Graphics & Text | Print | Product List | Glossary On
Versions: 1 2 3 4 5 6 7 8 9 10 11 12 13 14 15 16 17 18 19 20 21 22 23 24 25 26 27
000
ASUS45 KBOI 290210
RWRID

IDAHO REGIONAL WEATHER ROUNDUP
NATIONAL WEATHER SERVICE BOISE ID
800 PM MDT FRI APR 28 2017

NOTE: "FAIR" INDICATES FEW OR NO CLOUDS BELOW 12000 FEET
WITH NO SIGNIFICANT WEATHER AND/OR OBSTRUCTIONS TO VISIBILITY

IDZ012-014-290300-
SOUTHWEST IDAHO


CITY           SKY/WX    TMP DP  RH WIND       PRES   REMARKS
BOISE          CLEAR     55  28  35 NW25G31   30.08R
CALDWELL       CLEAR     56  28  34 NW12      30.12R
MOUNTAIN HOME  CLEAR     54  29  39 NW24      30.07R
$$

IDZ016-017-290300-
SOUTHCENTRAL IDAHO


CITY           SKY/WX    TMP DP  RH WIND       PRES   REMARKS
BURLEY         CLOUDY    50  26  39 W15G28    30.01R
JEROME         PTCLDY    50  28  42 W20       30.02R
TWIN FALLS     CLEAR     48  28  46 W22G32    30.03S
$$

IDZ019>023-290300-
SOUTHEAST IDAHO


CITY           SKY/WX    TMP DP  RH WIND       PRES   REMARKS
IDAHO FALLS    CLOUDY    47  26  44 NE16G22   30.02R
POCATELLO      CLOUDY    45  34  65 S3        30.01R
REXBURG        CLOUDY    46  26  45 NE15      30.02R
$$

IDZ006-010-011-018-031-032-290300-
CENTRAL IDAHO MOUNTAINS


CITY           SKY/WX    TMP DP  RH WIND       PRES   REMARKS
MCCALL         MOCLDY    41  25  53 N15G23    30.13R
HAILEY         PTCLDY    50  16  25 N9        30.03R
STANLEY          N/A     40  18  41 NW9       30.09R WCI  34
SALMON         MOCLDY    48  21  34 NW9       30.08R
CHALLIS        PTCLDY    47  18  31 N13       30.07R
$$

IDZ002-004-006-007-026-290300-
NORTHERN IDAHO


CITY           SKY/WX    TMP DP  RH WIND       PRES   REMARKS
LEWISTON       CLOUDY    58  36  43 E6        30.19S
LOWELL           N/A     45  41  86 CALM      30.26F
COEUR D`ALENE  CLOUDY    48  39  71 SE7       30.16F
MULLAN PASS    CLOUDY    31  30  96 NW3       30.15S
$$




USA.gov is the U.S. government's official web portal to all federal, state and local government web resources and services.